Location: Bittkow
(50.3000°N, 19.0000°E)
Time: 13:14:18
(UTC+00:00)

CZ-2C R/B - Pass Details

Date: 19 September 2020
Orbit: 503 x 566 km, 97.7° (Epoch: 21 October)

Event Time Altitude Azimuth Distance (km) Brightness Sun altitude
Rises 03:10:32 0° 5° (N) 2,631 6.6 -12.7°
Reaches altitude 10° 03:12:47 10° 354° (N) 1,747 5.5 -12.3°
Maximum altitude 03:16:05 30° 293° (WNW) 955 3.6 -11.8°
Enters shadow 03:18:19 17° 242° (WSW) 1,380 4.2 -11.5°
